Find Starlink 32827

NORAD ID: 63043 Int'l Des: 2025-034 Owner: SPXS Country: US Constellation: starlink operational
LEOCIRCULAR

当前视图

正在加载3D地球...

About Starlink 32827

Starlink 32827 (NORAD 63043) is a starlink constellation satellite (v2 mini) launched Feb 18, 2025 by SPXS of US. It operates in LEO, CIRCULAR orbit with a mass of 730.00 kg.

即将过境

Passes for default location (London). Set your location on the main map for personalized predictions.

高度历史

Loading altitude history...

两行轨道根数

1 63043U 25034Q 26264.18019814 .00019635 00000-0 59071-3 0 9991
2 63043 53.1601 78.8766 0001776 60.0852 300.0327 15.34400793 88892
Epoch: Sep 21, 2026 • Age: 12 hours

当前状态

高度 474.8 km
远地点 / 近地点 N/A
速度 7.63 km/s
星下点 -36.62°S, 152.96°E
发射日期 Feb 18, 2025
运行时间 1.5 years
类型 internet

技术详情

分类 Payload
质量 730.00 kg
干质量 700.00 kg
长度 0.30 m
跨度 29.00 m
形状 ? Box + pan
制造商 SPXS
平台类型 Starlink V2M
阶段状态 In Orbit
所有者/国家 SPXS/US

Most Searched